TimeCDT,TemperatureF,Dew PointF,Humidity,Sea Level PressureIn,VisibilityMPH,Wind Direction,Wind SpeedMPH,Gust SpeedMPH,PrecipitationIn,Events,Conditions,WindDirDegrees,DateUTC
12:14 AM,55.4,21.2,26,29.82,10.0,SSE,5.8,-,N/A,,Clear,150,2012-10-03 05:14:00
12:33 AM,55.4,21.2,26,29.82,10.0,SSE,5.8,-,N/A,,Clear,150,2012-10-03 05:33:00
12:53 AM,53.6,21.2,28,29.82,10.0,SE,5.8,-,N/A,,Clear,140,2012-10-03 05:53:00
1:13 AM,53.6,21.2,28,29.82,10.0,SSE,5.8,-,N/A,,Clear,150,2012-10-03 06:13:00
1:33 AM,53.6,23.0,30,29.82,10.0,SE,4.6,-,N/A,,Clear,140,2012-10-03 06:33:00
1:53 AM,51.8,23.0,33,29.82,10.0,SE,4.6,-,N/A,,Clear,140,2012-10-03 06:53:00
2:13 AM,51.8,24.8,35,29.83,10.0,SE,4.6,-,N/A,,Clear,140,2012-10-03 07:13:00
2:33 AM,50.0,24.8,37,29.83,10.0,SE,6.9,-,N/A,,Clear,140,2012-10-03 07:33:00
2:53 AM,51.8,24.8,35,29.83,10.0,SE,4.6,-,N/A,,Clear,140,2012-10-03 07:53:00
3:13 AM,50.0,24.8,37,29.82,10.0,SE,4.6,-,N/A,,Clear,140,2012-10-03 08:13:00
3:33 AM,48.2,26.6,43,29.82,10.0,SE,5.8,-,N/A,,Clear,140,2012-10-03 08:33:00
3:53 AM,50.0,26.6,40,29.82,10.0,SSE,5.8,-,N/A,,Clear,150,2012-10-03 08:53:00
4:13 AM,50.0,26.6,40,29.82,10.0,SE,5.8,-,N/A,,Clear,130,2012-10-03 09:13:00
4:33 AM,48.2,26.6,43,29.82,10.0,SE,5.8,-,N/A,,Clear,130,2012-10-03 09:33:00
4:53 AM,48.2,26.6,43,29.83,10.0,SE,4.6,-,N/A,,Clear,130,2012-10-03 09:53:00
5:14 AM,46.4,26.6,46,29.83,10.0,Calm,Calm,-,N/A,,Clear,0,2012-10-03 10:14:00
5:34 AM,46.4,28.4,50,29.83,10.0,East,3.5,-,N/A,,Clear,100,2012-10-03 10:34:00
5:53 AM,44.6,28.4,53,29.84,10.0,ESE,4.6,-,N/A,,Clear,110,2012-10-03 10:53:00
6:14 AM,42.8,28.4,57,29.84,10.0,East,4.6,-,N/A,,Clear,100,2012-10-03 11:14:00
6:33 AM,42.8,28.4,57,29.85,10.0,Calm,Calm,-,N/A,,Clear,0,2012-10-03 11:33:00
6:53 AM,39.2,26.6,61,29.85,10.0,Calm,Calm,-,N/A,,Clear,0,2012-10-03 11:53:00
7:13 AM,39.2,28.4,65,29.85,10.0,Calm,Calm,-,N/A,,Clear,0,2012-10-03 12:13:00
7:33 AM,39.2,28.4,65,29.85,10.0,ESE,5.8,-,N/A,,Clear,120,2012-10-03 12:33:00
7:53 AM,44.6,28.4,53,29.84,10.0,SE,5.8,-,N/A,,Clear,130,2012-10-03 12:53:00
8:13 AM,46.4,28.4,50,29.85,10.0,Calm,Calm,-,N/A,,Clear,0,2012-10-03 13:13:00
8:33 AM,46.4,30.2,53,29.85,7.0,Calm,Calm,-,N/A,,Clear,0,2012-10-03 13:33:00
8:55 AM,48.2,28.4,46,29.84,7.0,ENE,3.5,-,N/A,,Clear,70,2012-10-03 13:55:00
9:13 AM,51.8,30.2,44,29.85,7.0,Calm,Calm,-,N/A,,Clear,0,2012-10-03 14:13:00
9:34 AM,55.4,30.2,38,29.84,10.0,SE,3.5,-,N/A,,Clear,130,2012-10-03 14:34:00
9:54 AM,57.2,30.2,36,29.85,7.0,Calm,Calm,-,N/A,,Clear,0,2012-10-03 14:54:00
10:13 AM,59.0,28.4,31,29.84,10.0,Calm,Calm,-,N/A,,Clear,0,2012-10-03 15:13:00
10:33 AM,62.6,28.4,27,29.83,10.0,Calm,Calm,-,N/A,,Clear,0,2012-10-03 15:33:00
10:53 AM,62.6,28.4,27,29.83,7.0,ENE,3.5,-,N/A,,Clear,60,2012-10-03 15:53:00
11:13 AM,66.2,28.4,24,29.83,10.0,Calm,Calm,-,N/A,,Clear,0,2012-10-03 16:13:00
11:33 AM,68.0,28.4,23,29.83,10.0,Calm,Calm,-,N/A,,Clear,0,2012-10-03 16:33:00
11:53 AM,69.8,28.4,21,29.82,10.0,East,8.1,-,N/A,,Clear,90,2012-10-03 16:53:00
12:13 PM,71.6,26.6,19,29.81,10.0,ESE,8.1,-,N/A,,Clear,120,2012-10-03 17:13:00
12:33 PM,73.4,26.6,18,29.80,10.0,ESE,8.1,-,N/A,,Clear,120,2012-10-03 17:33:00
12:53 PM,73.4,26.6,18,29.78,10.0,ESE,9.2,-,N/A,,Clear,110,2012-10-03 17:53:00
1:13 PM,77.0,26.6,16,29.78,10.0,ESE,10.4,16.1,N/A,,Clear,120,2012-10-03 18:13:00
1:33 PM,78.8,26.6,15,29.77,10.0,SE,9.2,16.1,N/A,,Clear,130,2012-10-03 18:33:00
1:54 PM,78.8,24.8,14,29.77,10.0,SSE,11.5,19.6,N/A,,Clear,150,2012-10-03 18:54:00
2:13 PM,78.8,26.6,15,29.76,10.0,SE,6.9,-,N/A,,Clear,140,2012-10-03 19:13:00
2:33 PM,80.6,24.8,13,29.76,10.0,SSE,11.5,20.7,N/A,,Clear,160,2012-10-03 19:33:00
2:53 PM,80.6,21.2,11,29.75,7.0,SE,15.0,19.6,N/A,,Clear,130,2012-10-03 19:53:00
3:13 PM,80.6,19.4,10,29.75,10.0,SE,15.0,20.7,N/A,,Clear,140,2012-10-03 20:13:00
3:34 PM,78.8,17.6,10,29.75,10.0,ESE,10.4,18.4,N/A,,Clear,120,2012-10-03 20:34:00
4:14 PM,78.8,15.8,9,29.73,10.0,SE,10.4,-,N/A,,Clear,140,2012-10-03 21:14:00
4:33 PM,80.6,15.8,9,29.73,10.0,ESE,13.8,20.7,N/A,,Clear,120,2012-10-03 21:33:00
4:53 PM,78.8,17.6,10,29.74,10.0,SSE,15.0,21.9,N/A,,Clear,150,2012-10-03 21:53:00
5:13 PM,78.8,17.6,10,29.74,7.0,SE,13.8,20.7,N/A,,Clear,140,2012-10-03 22:13:00
5:34 PM,77.0,19.4,12,29.74,10.0,SE,13.8,18.4,N/A,,Clear,140,2012-10-03 22:34:00
5:53 PM,78.8,17.6,10,29.75,10.0,SE,11.5,16.1,N/A,,Clear,140,2012-10-03 22:53:00
6:13 PM,78.8,19.4,11,29.75,10.0,SE,12.7,-,N/A,,Clear,140,2012-10-03 23:13:00
6:33 PM,75.2,21.2,13,29.76,10.0,SE,12.7,-,N/A,,Clear,140,2012-10-03 23:33:00
6:53 PM,73.4,21.2,14,29.76,10.0,SE,8.1,-,N/A,,Clear,140,2012-10-03 23:53:00
7:14 PM,73.4,21.2,14,29.75,10.0,SE,8.1,-,N/A,,Clear,130,2012-10-04 00:14:00
7:34 PM,69.8,24.8,18,29.75,10.0,ESE,8.1,-,N/A,,Clear,120,2012-10-04 00:34:00
7:53 PM,68.0,24.8,20,29.75,10.0,ESE,10.4,-,N/A,,Clear,110,2012-10-04 00:53:00
8:13 PM,69.8,24.8,18,29.75,10.0,ESE,10.4,-,N/A,,Scattered Clouds,120,2012-10-04 01:13:00
8:34 PM,69.8,26.6,20,29.75,10.0,ESE,9.2,-,N/A,,Scattered Clouds,120,2012-10-04 01:34:00
8:54 PM,69.8,26.6,20,29.74,10.0,ESE,11.5,-,N/A,,Scattered Clouds,120,2012-10-04 01:54:00
9:13 PM,69.8,26.6,20,29.73,10.0,SE,12.7,-,N/A,,Scattered Clouds,130,2012-10-04 02:13:00
9:33 PM,69.8,26.6,20,29.73,10.0,SE,11.5,-,N/A,,Scattered Clouds,130,2012-10-04 02:33:00
9:53 PM,68.0,26.6,21,29.72,10.0,SE,11.5,-,N/A,,Mostly Cloudy,130,2012-10-04 02:53:00
10:13 PM,68.0,26.6,21,29.71,10.0,SE,12.7,-,N/A,,Scattered Clouds,130,2012-10-04 03:13:00
10:33 PM,66.2,28.4,24,29.70,10.0,SE,13.8,18.4,N/A,,Clear,130,2012-10-04 03:33:00
10:53 PM,66.2,28.4,24,29.69,10.0,SE,15.0,21.9,N/A,,Clear,130,2012-10-04 03:53:00
11:13 PM,64.4,28.4,26,29.68,10.0,SE,12.7,18.4,N/A,,Clear,130,2012-10-04 04:13:00
11:34 PM,64.4,28.4,26,29.67,10.0,SE,10.4,-,N/A,,Clear,130,2012-10-04 04:34:00
11:53 PM,62.6,30.2,30,29.68,10.0,SW,3.5,-,N/A,,Clear,230,2012-10-04 04:53:00